Home > Weather > Ontario > Past weeks

Flag for USA Past Weather in Ontario, California, USA — Yesterday and Last 2 Weeks

Now
75 °F

Passing clouds.


Feels Like: 78 °F
Forecast: 71 / 97 °F
Wind: 3 mph from Southwest

Location: Ontario International Airport

Current Time: Jul 28, 2016 at 7:38:33 AM

Latest Report: Jul 28, 2016 at 6:53 AM


Visibility: 10 mi

Pressure: 29.86 "Hg

Humidity: 48%

Dew Point: 54 °F

Location of OntarioLocation

Past Weather in Ontario — Graph

°F

Ontario Temperature Yesterday

Maximum temperature yesterday: 100 °F (at 2:53 PM)
Minimum temperature yesterday: 74 °F (at 5:53 AM)
Average temperature yesterday: 85 °F

High & Low Weather Summary for the Past Weeks

 TemperatureHumidityPressure
High108 °F (Jul 23, 1:53 PM)90% (Jul 14, 5:53 AM)30.00 "Hg (Jul 14, 5:53 AM)
Low62 °F (Jul 16, 4:53 AM)7% (Jul 23, 1:53 PM)29.71 "Hg (Jul 23, 1:53 PM)
Average82 °F41%29.87 "Hg
* Reported Jul 13 5:53 AM — Jul 28 5:53 AM, Ontario, Weather by CustomWeather, © 2016

Note: Actual official high and low records may vary slightly from our data, if they occured in-between our weather recording intervals... More about our weather records

Advertising

Ontario Weather History for the Previous 24 Hours

Scroll right to see more
 ConditionsComfort  
Time TempWeatherWind HumidityBarometerVisibility
5:53 AM
Thu, Jul 28
72 °FPassing clouds.No wind52%29.85 "Hg10 mi
4:53 AM72 °FPassing clouds.No wind49%29.84 "Hg10 mi
3:53 AM73 °FPassing clouds.3 mph50%29.84 "Hg10 mi
2:53 AM74 °FPassing clouds.5 mph52%29.84 "Hg10 mi
1:53 AM75 °FClear.5 mph50%29.84 "Hg10 mi
12:53 AM78 °FClear.5 mph33%29.84 "Hg10 mi
11:53 PM
Wed, Jul 27
79 °FClear.5 mph30%29.85 "Hg10 mi
10:53 PM79 °FClear.8 mph38%29.85 "Hg10 mi
9:53 PM82 °FPassing clouds.6 mph33%29.85 "Hg10 mi
8:53 PM84 °FScattered clouds.9 mph27%29.84 "Hg10 mi
7:53 PM87 °FScattered clouds.10 mph24%29.83 "Hg10 mi
6:53 PM91 °FPassing clouds.9 mph22%29.81 "Hg10 mi
5:53 PM93 °FPassing clouds.13 mph22%29.80 "Hg10 mi
4:53 PM96 °FPassing clouds.15 mph25%29.81 "Hg10 mi
3:53 PM97 °FPassing clouds.18 mph25%29.81 "Hg10 mi
2:53 PM100 °FPassing clouds.12 mph17%29.82 "Hg10 mi
1:53 PM99 °FPassing clouds.13 mph16%29.84 "Hg10 mi
12:53 PM97 °FPassing clouds.10 mph18%29.85 "Hg10 mi
11:53 AM94 °FPassing clouds.8 mph21%29.86 "Hg10 mi
10:53 AM91 °FPassing clouds.6 mph16%29.88 "Hg10 mi
9:53 AM87 °FPassing clouds.3 mph24%29.87 "Hg10 mi
8:53 AM82 °FPassing clouds.No wind33%29.88 "Hg10 mi
7:53 AM79 °FPassing clouds.No wind36%29.86 "Hg10 mi
Weather by CustomWeather, © 2016

See weather overviewHow to use our weather pages